EW8829 Weather Reports


time (UTC)temp
C
wind
direction
speed
KPH
gust
KPH
rain 1hr
cm
rain 24hr
cm
rain mn
cm
humidity
%
barometer
mb
20260508150554 7 51 3.2 4.8 0.00 0.00 0.00 81 1010.9
20260508150050 6 45 3.2 4.8 0.00 0.00 0.00 80 1010.6
20260508145547 6 76 4.8 6.4 0.00 0.00 0.00 80 1010.5
20260508145043 6 96 3.2 4.8 0.00 0.00 0.00 85 1010.7
20260508144541 6 63 4.8 4.8 0.00 0.00 0.00 85 1010.8
20260508144038 6 36 3.2 3.2 0.00 0.00 0.00 86 1010.9
20260508143536 6 13 3.2 6.4 0.00 0.00 0.00 85 1010.7
20260508143032 6 39 3.2 3.2 0.00 0.00 0.00 85 1010.9
20260508142529 6 45 4.8 4.8 0.00 0.00 0.00 87 1010.8
20260508142026 5 46 3.2 3.2 0.00 0.00 0.00 88 1010.7
20260508141522 5 81 1.6 3.2 0.00 0.00 0.00 89 1010.9
20260508141021 5 78 4.8 4.8 0.00 0.00 0.00 88 1010.9
20260508140518 5 46 3.2 6.4 0.00 0.00 0.00 87 1010.9
20260508140014 5 64 4.8 6.4 0.00 0.00 0.00 86 1010.9
20260508135509 5 77 1.6 4.8 0.00 0.00 0.00 87 1010.9
20260508135006 5 30 3.2 4.8 0.00 0.00 0.00 86 1010.8
20260508134502 5 51 3.2 6.4 0.00 0.00 0.00 86 1011.2
20260508133959 5 55 4.8 6.4 0.00 0.00 0.00 84 1010.9
20260508133456 5 259 3.2 6.4 0.05 0.00 0.00 85 1010.6
20260508132953 5 24 3.2 4.8 0.05 0.00 0.00 91 1010.5
20260508132451 5 47 3.2 4.8 0.00 0.00 0.00 88 1010.5
20260508131948 6 87 3.2 3.2 0.00 0.00 0.00 89 1010.5
20260508131443 5 64 3.2 4.8 0.00 0.00 0.00 89 1010.1
20260508130940 5 55 3.2 4.8 0.00 0.00 0.00 90 1010.2
20260508130437 5 67 3.2 3.2 0.00 0.00 0.00 87 1010.4
20260508125933 5 80 0.0 3.2 0.00 0.00 0.00 88 1010.3
20260508125430 5 45 3.2 3.2 0.00 0.00 0.00 88 1010.2
20260508124928 5 80 3.2 3.2 0.00 0.00 0.00 89 1010.1
20260508124425 5 107 1.6 4.8 0.00 0.00 0.00 91 1009.9
20260508123922 5 88 3.2 3.2 0.00 0.00 0.00 92 1010.1
20260508123421 5 49 1.6 4.8 0.00 0.00 0.00 92 1010.0
20260508122917 4 99 3.2 4.8 0.00 0.00 0.00 92 1010.3
20260508122414 4 79 1.6 3.2 0.00 0.00 0.00 92 1010.0
20260508121911 4 72 4.8 4.8 0.00 0.00 0.00 93 1010.2
20260508121409 4 60 4.8 6.4 0.00 0.00 0.00 94 1010.3
20260508120906 3 333 0.0 3.2 0.00 0.00 0.00 94 1010.2
20260508120404 3 246 1.6 3.2 0.00 0.00 0.00 95 1010.2
20260508115901 3 22 0.0 3.2 0.00 0.00 0.00 95 1010.2
20260508115359 3 45 1.6 3.2 0.00 0.00 0.00 97 1010.1
20260508114855 3 119 0.0 3.2 0.00 0.00 0.00 99 1010.2
20260508114352 3 67 1.6 3.2 0.00 0.00 0.00 99 1010.1
20260508113849 2 88 3.2 4.8 0.00 0.00 0.00 99 1010.3
20260508113347 2 100 3.2 3.2 0.00 0.00 0.00 99 1010.5
20260508112843 2 38 3.2 4.8 0.00 0.00 0.00 99 1010.6
20260508112341 2 81 3.2 4.8 0.00 0.00 0.00 99 1010.3
20260508111837 2 79 1.6 3.2 0.00 0.00 0.00 99 1010.5
20260508111334 2 86 3.2 4.8 0.00 0.00 0.00 99 1010.5
20260508110831 2 56 3.2 3.2 0.00 0.00 0.00 99 1010.5
20260508110329 2 68 3.2 3.2 0.00 0.00 0.00 99 1010.6
20260508105829 2 41 3.2 4.8 0.00 0.00 0.00 99 1010.6
20260508105325 1 88 3.2 4.8 0.00 0.00 0.00 99 1010.5
20260508104822 1 71 3.2 3.2 0.00 0.00 0.00 99 1010.4
20260508104319 1 22 3.2 4.8 0.00 0.00 0.00 99 1010.1
20260508103816 1 79 3.2 4.8 0.00 0.00 0.00 99 1010.3
20260508103313 1 35 3.2 4.8 0.00 0.00 0.00 99 1010.8
20260508102811 1 88 3.2 4.8 0.00 0.00 0.00 99 1010.6
20260508102309 1 92 3.2 3.2 0.00 0.00 0.00 99 1010.7
20260508101806 1 43 1.6 3.2 0.00 0.00 0.00 99 1010.5
20260508101303 1 79 3.2 3.2 0.00 0.00 0.00 99 1010.3
20260508100800 1 72 3.2 3.2 0.00 0.00 0.00 99 1010.4
20260508100259 1 28 4.8 6.4 0.00 0.00 0.00 99 1010.4
20260508095754 1 84 1.6 3.2 0.00 0.00 0.00 99 1010.2
20260508095252 1 84 3.2 3.2 0.00 0.00 0.00 99 1010.3
20260508094749 1 53 0.0 1.6 0.00 0.00 0.00 99 1010.4
20260508094246 0 42 0.0 3.2 0.00 0.00 0.00 99 1010.1
20260508093743 1 83 1.6 3.2 0.00 0.00 0.00 99 1010.5
20260508093240 1 109 3.2 3.2 0.00 0.00 0.00 99 1010.4
20260508092737 1 17 0.0 3.2 0.00 0.00 0.00 99 1010.2
20260508092235 1 45 1.6 3.2 0.00 0.00 0.00 99 1010.0
20260508091733 1 47 4.8 4.8 0.00 0.00 0.00 99 1010.0
20260508091230 1 55 3.2 4.8 0.00 0.00 0.00 99 1010.0
20260508090728 1 89 3.2 3.2 0.00 0.00 0.00 99 1010.0
20260508090225 1 38 0.0 1.6 0.00 0.00 0.00 99 1010.2
20260508085721 1 37 1.6 1.6 0.00 0.00 0.00 99 1009.8
20260508085218 1 92 3.2 3.2 0.00 0.00 0.00 99 1009.7
20260508084714 1 66 0.0 1.6 0.00 0.00 0.00 99 1009.6
20260508084212 1 343 0.0 3.2 0.00 0.00 0.00 99 1009.7
20260508083709 1 45 3.2 3.2 0.00 0.00 0.00 99 1009.4
20260508083207 2 68 3.2 3.2 0.00 0.00 0.00 99 1009.6
20260508082701 2 68 3.2 3.2 0.00 0.00 0.00 99 1009.7
20260508082159 2 36 1.6 3.2 0.00 0.00 0.00 99 1010.1
20260508081656 2 355 0.0 3.2 0.00 0.00 0.00 99 1009.8
20260508081153 2 47 3.2 3.2 0.00 0.00 0.00 98 1009.5
20260508080650 2 86 3.2 3.2 0.00 0.00 0.00 98 1009.6
20260508080148 2 98 3.2 4.8 0.00 0.00 0.00 98 1009.7
20260508075644 2 1 1.6 3.2 0.00 0.00 0.00 98 1009.5
20260508075141 3 337 1.6 3.2 0.00 0.00 0.00 98 1009.3
20260508074639 2 32 1.6 3.2 0.00 0.00 0.00 98 1009.1
20260508074136 3 51 3.2 4.8 0.00 0.00 0.00 98 1009.3
20260508073633 3 41 1.6 3.2 0.00 0.00 0.00 98 1009.4
20260508073131 3 76 3.2 3.2 0.00 0.00 0.00 97 1009.4
20260508072626 3 46 3.2 3.2 0.00 0.00 0.00 97 1009.5
20260508072124 3 39 0.0 6.4 0.00 0.00 0.00 97 1009.6
20260508071621 3 73 4.8 4.8 0.00 0.00 0.00 97 1009.4
20260508071119 3 38 4.8 4.8 0.00 0.00 0.00 97 1009.3
20260508070616 3 48 3.2 4.8 0.00 0.00 0.00 97 1009.5
20260508070115 3 68 4.8 4.8 0.00 0.00 0.00 97 1009.4
20260508065612 3 46 3.2 4.8 0.00 0.00 0.00 97 1009.3
20260508065110 3 86 3.2 3.2 0.00 0.00 0.00 97 1009.6
20260508064607 3 88 1.6 3.2 0.00 0.00 0.00 97 1009.5
20260508064105 3 84 3.2 3.2 0.00 0.00 0.00 97 1009.3
20260508063602 3 93 3.2 4.8 0.00 0.00 0.00 97 1009.4
20260508063100 3 109 3.2 3.2 0.00 0.00 0.00 97 1009.1
20260508062557 3 36 1.6 3.2 0.00 0.00 0.00 96 1009.6
20260508062054 3 103 4.8 4.8 0.00 0.00 0.00 96 1009.3
20260508061551 3 34 0.0 1.6 0.00 0.00 0.00 95 1009.1
20260508061048 3 328 1.6 3.2 0.00 0.00 0.00 95 1009.3
20260508060545 3 13 1.6 3.2 0.00 0.00 0.00 94 1009.3
20260508060043 4 75 4.8 6.4 0.00 0.00 0.00 93 1009.5
20260508055538 4 83 3.2 4.8 0.00 0.00 0.00 92 1009.4
20260508055035 4 39 3.2 4.8 0.00 0.00 0.00 92 1009.2
20260508054531 3 35 3.2 4.8 0.00 0.00 0.00 91 1009.2
20260508054029 3 70 3.2 4.8 0.00 0.00 0.00 90 1009.4
20260508053525 4 34 3.2 4.8 0.00 0.00 0.00 90 1009.2
20260508053024 4 83 4.8 4.8 0.00 0.00 0.00 89 1009.2
20260508052521 3 86 1.6 3.2 0.00 0.00 0.00 89 1009.4
20260508052017 3 65 0.0 3.2 0.00 0.00 0.00 88 1009.5
20260508051514 3 344 0.0 1.6 0.00 0.00 0.00 89 1009.5
20260508051009 4 355 1.6 1.6 0.00 0.00 0.00 90 1009.4
20260508050506 4 39 1.6 1.6 0.00 0.00 0.00 90 1009.5
20260508050003 4 84 3.2 3.2 0.00 0.00 0.00 89 1009.3
20260508045459 5 345 0.0 0.0 0.00 0.00 0.00 88 1009.5
20260508044957 5 25 0.0 0.0 0.00 0.00 0.00 88 1009.4
20260508044454 5 60 0.0 1.6 0.00 0.00 0.00 89 1009.5
20260508043949 5 84 3.2 3.2 0.00 0.00 0.00 88 1009.6
20260508043447 5 69 3.2 3.2 0.00 0.00 0.00 89 1009.6
20260508042943 5 64 3.2 3.2 0.00 0.00 0.00 88 1009.7
20260508042441 5 45 3.2 3.2 0.00 0.00 0.00 88 1009.6
20260508041937 5 45 3.2 3.2 0.00 0.00 0.00 88 1009.6
20260508041434 5 52 3.2 4.8 0.00 0.00 0.00 87 1009.7
20260508040931 5 48 3.2 3.2 0.00 0.00 0.00 87 1009.7
20260508040428 5 89 1.6 3.2 0.00 0.00 0.00 87 1009.7
20260508035926 5 105 3.2 3.2 0.00 0.00 0.00 86 1009.7
20260508035422 5 75 1.6 3.2 0.00 0.00 0.00 87 1009.8
20260508034919 5 94 3.2 3.2 0.00 0.00 0.00 87 1009.5
20260508034417 5 89 3.2 4.8 0.00 0.00 0.00 87 1009.5
20260508033913 5 96 4.8 4.8 0.00 0.00 0.00 87 1009.5
20260508033412 5 256 0.0 1.6 0.00 0.00 0.00 87 1009.5
20260508032909 4 101 3.2 3.2 0.00 0.00 0.00 87 1009.5
20260508032406 4 77 3.2 3.2 0.00 0.00 0.00 87 1009.3
20260508031902 4 75 3.2 4.8 0.00 0.00 0.00 87 1009.3
20260508031400 4 54 3.2 3.2 0.00 0.00 0.00 87 1009.0
20260508030855 4 92 3.2 3.2 0.00 0.00 0.00 87 1009.1
20260508030353 4 52 3.2 3.2 0.00 0.00 0.00 87 1008.9
20260508025850 4 83 3.2 3.2 0.00 0.00 0.00 87 1008.9
20260508025347 4 72 1.6 3.2 0.00 0.00 0.00 87 1009.0
20260508024843 4 56 3.2 3.2 0.00 0.00 0.00 86 1008.9
20260508024340 4 40 3.2 3.2 0.00 0.00 0.00 86 1008.9
20260508023837 4 71 3.2 4.8 0.00 0.00 0.00 85 1008.9
20260508023334 4 47 3.2 3.2 0.00 0.00 0.00 84 1009.0
20260508022830 5 31 0.0 1.6 0.00 0.00 0.00 84 1008.8
20260508022326 5 22 0.0 3.2 0.00 0.00 0.00 85 1008.6
20260508021824 5 84 1.6 3.2 0.00 0.00 0.00 84 1008.5
20260508021319 5 53 1.6 3.2 0.00 0.00 0.00 84 1008.5
20260508020816 5 32 1.6 3.2 0.00 0.00 0.00 85 1008.7
20260508020314 5 69 3.2 3.2 0.00 0.00 0.00 83 1008.5
20260508015810 5 56 1.6 3.2 0.00 0.00 0.00 83 1008.8
20260508015308 5 12 1.6 3.2 0.00 0.00 0.00 83 1008.8
20260508014804 5 45 1.6 3.2 0.00 0.00 0.00 82 1008.6
20260508014302 5 75 3.2 3.2 0.00 0.00 0.00 82 1008.6
20260508013757 5 9 1.6 3.2 0.00 0.00 0.00 81 1008.3
20260508013254 5 15 0.0 1.6 0.00 0.00 0.00 81 1008.4
20260508012751 5 340 1.6 3.2 0.00 0.00 0.00 81 1008.4
20260508012248 5 333 1.6 1.6 0.00 0.00 0.00 83 1008.3
20260508011746 6 65 1.6 3.2 0.00 0.00 0.00 82 1008.4
20260508011243 6 45 3.2 4.8 0.00 0.00 0.00 79 1008.1
20260508010740 6 74 4.8 4.8 0.00 0.00 0.00 77 1008.3
20260508010238 6 69 3.2 3.2 0.00 0.00 0.00 76 1008.4
20260508005735 7 51 3.2 3.2 0.00 0.00 0.00 75 1008.0
20260508005232 7 61 3.2 3.2 0.00 0.00 0.00 75 1008.0
20260508004727 7 47 3.2 3.2 0.00 0.00 0.00 72 1008.1
20260508004224 7 33 3.2 3.2 0.00 0.00 0.00 70 1008.1
20260508003720 7 85 3.2 3.2 0.00 0.00 0.00 70 1007.9
20260508003218 7 46 1.6 3.2 0.00 0.00 0.00 73 1007.8
20260508002714 7 52 3.2 3.2 0.00 0.00 0.00 68 1008.0
20260508002212 8 42 1.6 3.2 0.00 0.00 0.00 69 1007.8
20260508001707 8 304 0.0 3.2 0.00 0.00 0.00 70 1007.8
20260508001203 8 40 1.6 3.2 0.00 0.00 0.00 71 1007.6
20260508000659 8 351 1.6 3.2 0.00 0.00 0.00 66 1007.7
20260508000157 8 349 0.0 3.2 0.00 0.00 0.00 66 1007.4
20260507235653 8 46 1.6 3.2 0.00 0.00 0.00 62 1007.5
20260507235151 9 33 4.8 4.8 0.00 0.00 0.00 61 1007.7
20260507234648 9 36 3.2 3.2 0.00 0.00 0.00 60 1007.6
20260507234144 9 28 0.0 3.2 0.00 0.00 0.00 61 1007.2
20260507233641 9 50 3.2 4.8 0.00 0.00 0.00 60 1007.4
20260507233139 10 45 3.2 3.2 0.00 0.00 0.00 61 1007.7
20260507232635 10 25 3.2 3.2 0.00 0.00 0.00 56 1007.4
20260507232133 10 26 3.2 6.4 0.00 0.00 0.00 52 1007.5
20260507231629 10 25 4.8 4.8 0.00 0.00 0.00 53 1007.2
20260507231126 10 25 4.8 6.4 0.00 0.00 0.00 51 1007.4
20260507230622 11 18 4.8 6.4 0.00 0.00 0.00 52 1007.2
20260507230120 11 338 3.2 6.4 0.00 0.00 0.00 50 1007.5
20260507225614 11 24 6.4 9.7 0.00 0.00 0.00 50 1007.1
20260507225111 11 82 3.2 8.0 0.00 0.00 0.00 50 1007.1
20260507224607 11 25 4.8 8.0 0.00 0.00 0.00 49 1007.4
20260507224104 11 37 8.0 8.0 0.00 0.00 0.00 49 1007.1
20260507223600 12 47 9.7 9.7 0.00 0.00 0.00 50 1007.4
20260507223057 12 67 4.8 6.4 0.00 0.00 0.00 51 1007.5
20260507222554 12 350 1.6 6.4 0.00 0.00 0.00 49 1007.0
20260507222050 12 40 6.4 8.0 0.00 0.00 0.00 55 1007.1
20260507221547 12 50 3.2 6.4 0.00 0.00 0.00 52 1007.4
20260507221044 12 78 3.2 8.0 0.00 0.00 0.00 53 1007.1
20260507220541 12 77 8.0 9.7 0.00 0.00 0.00 52 1007.1
20260507220038 13 52 6.4 9.7 0.00 0.00 0.00 49 1007.2
20260507215534 13 77 6.4 8.0 0.00 0.00 0.00 52 1007.1
20260507215032 13 56 6.4 9.7 0.00 0.00 0.00 48 1007.2
20260507214530 13 49 6.4 8.0 0.00 0.00 0.00 50 1007.4
20260507214025 13 59 8.0 9.7 0.00 0.00 0.00 49 1007.5
20260507213521 14 25 6.4 6.4 0.00 0.00 0.00 49 1007.4
20260507213019 15 88 4.8 6.4 0.00 0.00 0.00 48 1007.2
20260507212514 13 8 6.4 9.7 0.00 0.00 0.00 45 1007.5
20260507212011 13 7 6.4 11.3 0.00 0.00 0.00 44 1007.2
20260507211508 13 20 8.0 8.0 0.00 0.00 0.00 47 1007.5
20260507211004 13 37 6.4 11.3 0.00 0.00 0.00 46 1007.4
20260507210501 12 3 11.3 12.9 0.00 0.00 0.00 48 1007.6
20260507205958 12 29 6.4 8.0 0.00 0.00 0.00 49 1007.4
20260507205455 14 29 3.2 8.0 0.00 0.00 0.00 43 1007.0
20260507204951 13 47 6.4 9.7 0.00 0.00 0.00 47 1007.4
20260507204448 12 13 8.0 8.0 0.00 0.00 0.00 48 1007.2
20260507203945 12 19 6.4 8.0 0.00 0.00 0.00 46 1007.6
20260507203443 13 16 6.4 8.0 0.00 0.00 0.00 47 1007.5
20260507202939 13 5 4.8 6.4 0.00 0.00 0.00 47 1007.6
20260507202436 12 67 8.0 9.7 0.00 0.00 0.00 48 1007.5
20260507201932 12 76 0.0 6.4 0.00 0.00 0.00 49 1007.4
20260507201432 12 69 6.4 8.0 0.00 0.00 0.00 49 1007.4
20260507200929 12 16 8.0 9.7 0.00 0.00 0.00 48 1007.5
20260507200425 12 3 9.7 9.7 0.00 0.00 0.00 48 1007.7
20260507195921 12 26 3.2 6.4 0.00 0.00 0.00 50 1007.4
20260507195419 13 4 8.0 9.7 0.00 0.00 0.00 46 1007.7
20260507194916 12 87 6.4 11.3 0.00 0.00 0.00 53 1007.6
20260507194412 13 63 4.8 14.5 0.00 0.00 0.00 46 1007.9
20260507193908 13 36 8.0 8.0 0.00 0.00 0.00 48 1007.9
20260507193406 12 26 9.7 9.7 0.00 0.00 0.00 48 1007.8
20260507192902 12 75 4.8 11.3 0.00 0.00 0.00 46 1007.7
20260507192358 13 74 12.9 14.5 0.00 0.00 0.00 42 1008.2
20260507191855 13 9 8.0 12.9 0.00 0.00 0.00 46 1007.8
20260507191351 12 62 6.4 12.9 0.00 0.00 0.00 46 1008.1
20260507190848 12 82 4.8 14.5 0.00 0.00 0.00 49 1007.9
20260507190346 13 102 8.0 12.9 0.00 0.00 0.00 44 1007.9
20260507185845 13 8 6.4 8.0 0.00 0.00 0.00 47 1008.0
20260507185342 13 11 6.4 8.0 0.00 0.00 0.00 47 1008.1
20260507184838 13 13 8.0 8.0 0.00 0.00 0.00 47 1008.2
20260507184336 12 70 6.4 9.7 0.00 0.00 0.00 49 1008.0
20260507183833 12 14 6.4 9.7 0.00 0.00 0.00 47 1008.1
20260507183330 12 25 4.8 9.7 0.00 0.00 0.00 45 1008.1
20260507182828 13 329 9.7 11.3 0.00 0.00 0.00 44 1008.1
20260507182323 12 5 4.8 9.7 0.00 0.00 0.00 49 1008.3
20260507181820 12 20 4.8 6.4 0.00 0.00 0.00 48 1008.5
20260507181316 12 35 4.8 9.7 0.00 0.00 0.00 45 1008.4
20260507180813 12 46 3.2 12.9 0.00 0.00 0.00 46 1008.3
20260507180310 12 140 6.4 11.3 0.00 0.00 0.00 48 1008.3
20260507175805 12 232 12.9 12.9 0.00 0.00 0.00 45 1008.4
20260507175306 12 37 4.8 6.4 0.00 0.00 0.00 51 1008.4
20260507174759 12 249 4.8 6.4 0.00 0.00 0.00 46 1008.5
20260507174257 12 17 3.2 8.0 0.00 0.00 0.00 49 1008.8
20260507173755 12 134 3.2 6.4 0.00 0.00 0.00 47 1008.6
20260507173252 12 12 6.4 8.0 0.00 0.00 0.00 52 1008.5
20260507172748 12 49 8.0 12.9 0.00 0.00 0.00 50 1009.0
20260507172245 11 277 9.7 11.3 0.00 0.00 0.00 48 1008.8
20260507171740 12 13 3.2 12.9 0.00 0.00 0.00 46 1009.1
20260507171238 12 13 6.4 8.0 0.00 0.00 0.00 46 1009.0
20260507170734 12 7 3.2 6.4 0.00 0.00 0.00 51 1009.1
20260507170231 12 91 4.8 8.0 0.00 0.00 0.00 54 1008.9
20260507165727 12 5 4.8 8.0 0.00 0.00 0.00 53 1009.0
20260507165223 11 18 4.8 8.0 0.00 0.00 0.00 53 1009.0
20260507164719 11 86 6.4 8.0 0.00 0.00 0.00 55 1008.9
20260507164217 11 19 3.2 8.0 0.00 0.00 0.00 51 1009.1
20260507163714 11 308 3.2 6.4 0.00 0.00 0.00 50 1009.0
20260507163212 12 344 4.8 14.5 0.00 0.00 0.00 49 1009.1
20260507162707 13 66 8.0 8.0 0.00 0.00 0.00 49 1009.0
20260507162203 12 70 6.4 8.0 0.00 0.00 0.00 52 1009.2
20260507161700 11 0 3.2 9.7 0.00 0.00 0.00 49 1009.4
20260507161156 11 0 3.2 6.4 0.00 0.00 0.00 50 1009.5
20260507160653 11 24 4.8 6.4 0.00 0.00 0.00 51 1009.1
20260507160150 11 293 3.2 14.5 0.00 0.00 0.00 51 1009.2
20260507155645 11 316 11.3 14.5 0.00 0.00 0.00 48 1009.3
20260507155142 11 30 9.7 9.7 0.00 0.00 0.00 47 1009.2
20260507154638 12 52 6.4 11.3 0.00 0.00 0.00 48 1009.3
20260507154136 12 243 4.8 12.9 0.00 0.00 0.00 49 1009.4
20260507153632 12 43 8.0 12.9 0.00 0.00 0.00 51 1009.8
20260507153129 12 21 4.8 9.7 0.00 0.00 0.00 52 1009.8
20260507152625 12 326 4.8 8.0 0.00 0.00 0.00 50 1009.6
20260507152121 11 102 0.0 6.4 0.00 0.00 0.00 54 1009.8
20260507151617 11 166 3.2 6.4 0.00 0.00 0.00 51 1009.8
20260507151115 11 262 6.4 14.5 0.00 0.00 0.00 51 1009.9